Home   Weather   Fairfield Heights   Past weeks
Flag for USA

Past Weather in Fairfield Heights, Maryland, USA — Yesterday and Last 2 Weeks

Now
83 °F

Partly cloudy.


Feels Like: 86 °F
Forecast: 89 / 74 °F
Wind: 5 mph from South

Location: Reagan National Airport

Current Time: Jul 4, 2020 at 10:05:24 pm

Latest Report: Jul 4, 2020 at 8:52 pm


Visibility: 10 mi

Pressure: 29.91 "Hg

Humidity: 63%

Dew Point: 69 °F

Location of Fairfield HeightsLocation

Past Weather in Fairfield Heights — Graph

°F

Fairfield Heights Temperature Yesterday

Maximum temperature yesterday: 96 °F (at 2:52 pm)
Minimum temperature yesterday: 76 °F (at 5:52 am)
Average temperature yesterday: 87 °F

High & Low Weather Summary for the Past Weeks

 TemperatureHumidityPressure
High96 °F (Jul 3, 2:52 pm)97% (Jun 21, 6:38 am)30.09 "Hg (Jun 21, 6:38 am)
Low67 °F (Jun 26, 2:52 am)32% (Jun 26, 1:52 pm)29.66 "Hg (Jun 23, 6:52 pm)
Average80 °F65%29.90 "Hg
* Reported Jun 19 7:52 pm — Jul 4 7:52 pm, Fairfield Heights. Weather by CustomWeather, © 2020

Note: Actual official high and low records may vary slightly from our data, if they occured in-between our weather recording intervals... More about our weather records

Fairfield Heights Weather History for the Previous 24 Hours

Scroll right to see more
 ConditionsComfort  
Time TempWeatherWind HumidityBarometerVisibility
7:52 pm
Sat, Jul 4
85 °FPartly sunny.8 mph57%29.90 "Hg10 mi
6:52 pm87 °FPartly sunny.6 mph53%29.90 "Hg10 mi
5:52 pm88 °FScattered clouds.8 mph52%29.90 "Hg10 mi
4:52 pm88 °FScattered clouds.10 mph54%29.90 "Hg10 mi
4:33 pm86 °FThundershowers. Scattered clouds.14 mph57%29.91 "Hg10 mi
4:07 pm90 °FThunderstorms. Scattered clouds.N/A48%29.90 "Hg10 mi
2:52 pm92 °FPartly sunny.3 mph41%29.90 "Hg10 mi
1:52 pm93 °FBroken clouds.5 mph42%29.92 "Hg10 mi
12:52 pm91 °FBroken clouds.6 mph47%29.92 "Hg10 mi
11:52 am90 °FScattered clouds.8 mph48%29.93 "Hg10 mi
10:52 am88 °FScattered clouds.7 mph54%29.93 "Hg10 mi
9:52 am86 °FPassing clouds.10 mph59%29.92 "Hg10 mi
8:52 am84 °FPassing clouds.9 mph61%29.92 "Hg10 mi
7:52 am82 °FPassing clouds.9 mph63%29.92 "Hg10 mi
6:52 am79 °FPassing clouds.8 mph67%29.90 "Hg10 mi
5:52 am78 °FPassing clouds.6 mph69%29.89 "Hg10 mi
4:52 am79 °FPassing clouds.7 mph67%29.88 "Hg10 mi
3:52 am79 °FPassing clouds.6 mph72%29.87 "Hg10 mi
2:52 am80 °FPassing clouds.8 mph67%29.87 "Hg10 mi
1:52 am82 °FPassing clouds.6 mph58%29.87 "Hg10 mi
12:52 am84 °FPassing clouds.3 mph55%29.88 "Hg10 mi
11:52 pm
Fri, Jul 3
86 °FPassing clouds.12 mph53%29.87 "Hg10 mi
10:52 pm88 °FPassing clouds.8 mph46%29.86 "Hg10 mi
Weather by CustomWeather, © 2020

See weather overview